| time (UTC) | temp F | wind direction | speed MPH | gust MPH | rain 1hr in | rain 24hr in | rain mn in | humidity % | barometer mb |
| 20260507091551 | 50 | 76 | 4.0 | 10.0 | 0.00 | 0.20 | 0.00 | 81 | 1015.0 |
| 20260507090021 | 51 | 28 | 3.0 | 7.0 | 0.00 | 0.20 | 0.00 | 81 | 1014.7 |
| 20260507084553 | 50 | 34 | 1.0 | 6.0 | 0.00 | 0.20 | 0.00 | 81 | 1014.6 |
| 20260507083023 | 50 | 66 | 1.0 | 4.0 | 0.00 | 0.20 | 0.00 | 83 | 1014.5 |
| 20260507081556 | 50 | 73 | 2.0 | 6.0 | 0.00 | 0.20 | 0.00 | 84 | 1014.4 |
| 20260507080026 | 50 | 79 | 2.0 | 4.0 | 0.00 | 0.20 | 0.00 | 85 | 1014.4 |
| 20260507074557 | 49 | 28 | 3.0 | 7.0 | 0.00 | 0.20 | 0.00 | 87 | 1014.1 |
| 20260507073027 | 48 | 21 | 2.0 | 6.0 | 0.00 | 0.20 | 0.00 | 87 | 1014.0 |
| 20260507071559 | 48 | 93 | 3.0 | 9.0 | 0.00 | 0.20 | 0.00 | 89 | 1013.8 |
| 20260507070029 | 48 | 60 | 2.0 | 4.0 | 0.00 | 0.20 | 0.00 | 91 | 1013.9 |
| 20260507064601 | 47 | 350 | 1.0 | 3.0 | 0.00 | 0.20 | 0.00 | 92 | 1013.6 |
| 20260507063031 | 47 | 38 | 1.0 | 3.0 | 0.00 | 0.20 | 0.00 | 94 | 1013.4 |
| 20260507061603 | 46 | 52 | 1.0 | 3.0 | 0.00 | 0.20 | 0.00 | 95 | 1013.2 |
| 20260507060033 | 45 | 52 | 2.0 | 7.0 | 0.00 | 0.20 | 0.00 | 95 | 1013.2 |
| 20260507054606 | 45 | 25 | 2.0 | 7.0 | 0.00 | 0.20 | 0.00 | 96 | 1013.0 |
| 20260507053036 | 45 | 46 | 2.0 | 7.0 | 0.00 | 0.20 | 0.00 | 96 | 1013.0 |
| 20260507051607 | 45 | 20 | 1.0 | 4.0 | 0.00 | 0.20 | 0.00 | 97 | 1012.7 |
| 20260507050037 | 44 | 7 | 2.0 | 6.0 | 0.00 | 0.20 | 0.00 | 97 | 1012.4 |
| 20260507044609 | 44 | 22 | 3.0 | 7.0 | 0.00 | 0.20 | 0.00 | 97 | 1012.5 |
| 20260507043039 | 44 | 25 | 0.0 | 1.0 | 0.00 | 0.20 | 0.00 | 97 | 1012.3 |
| 20260507041540 | 43 | 7 | 1.0 | 3.0 | 0.00 | 0.20 | 0.00 | 97 | 1012.2 |
| 20260507040113 | 43 | 15 | 2.0 | 4.0 | 0.00 | 0.20 | 0.00 | 97 | 1012.1 |
| 20260507034543 | 42 | 25 | 1.0 | 3.0 | 0.00 | 0.20 | 0.00 | 96 | 1011.9 |
| 20260507033114 | 42 | 13 | 1.0 | 3.0 | 0.00 | 0.20 | 0.00 | 96 | 1011.8 |
| 20260507031544 | 42 | 23 | 1.0 | 3.0 | 0.00 | 0.20 | 0.00 | 96 | 1011.6 |
| 20260507030116 | 42 | 0.0 | 0.0 | 0.00 | 0.20 | 0.00 | 95 | 1011.6 | |
| 20260507024546 | 42 | 14 | 2.0 | 3.0 | 0.00 | 0.20 | 0.00 | 95 | 1011.5 |
| 20260507023016 | 43 | 11 | 3.0 | 4.0 | 0.00 | 0.20 | 0.00 | 95 | 1011.3 |
| 20260507021548 | 43 | 25 | 2.0 | 4.0 | 0.00 | 0.20 | 0.00 | 94 | 1011.3 |
| 20260507020019 | 43 | 23 | 3.0 | 4.0 | 0.00 | 0.20 | 0.00 | 94 | 1011.1 |
| 20260507014550 | 43 | 21 | 2.0 | 3.0 | 0.00 | 0.20 | 0.00 | 94 | 1011.1 |
| 20260507013020 | 43 | 19 | 2.0 | 3.0 | 0.00 | 0.20 | 0.00 | 94 | 1011.0 |
| 20260507011552 | 43 | 19 | 2.0 | 3.0 | 0.00 | 0.20 | 0.00 | 94 | 1011.0 |
| 20260507010022 | 44 | 27 | 0.0 | 1.0 | 0.00 | 0.20 | 0.00 | 94 | 1010.9 |
| 20260507004554 | 44 | 33 | 1.0 | 3.0 | 0.00 | 0.20 | 0.00 | 93 | 1010.7 |
| 20260507003024 | 45 | 22 | 1.0 | 4.0 | 0.00 | 0.20 | 0.00 | 94 | 1010.8 |
| 20260507001556 | 45 | 20 | 1.0 | 3.0 | 0.00 | 0.20 | 0.00 | 94 | 1010.7 |
| 20260507000026 | 46 | 16 | 2.0 | 3.0 | 0.00 | 0.20 | 0.00 | 95 | 1010.7 |
| 20260506234558 | 47 | 14 | 3.0 | 7.0 | 0.00 | 0.20 | 0.00 | 95 | 1010.5 |
| 20260506233028 | 47 | 18 | 1.0 | 3.0 | 0.00 | 0.20 | 0.00 | 96 | 1010.4 |
| 20260506231600 | 48 | 9 | 2.0 | 4.0 | 0.00 | 0.20 | 0.00 | 96 | 1010.5 |
| 20260506230030 | 48 | 339 | 3.0 | 4.0 | 0.00 | 0.20 | 0.00 | 96 | 1010.3 |
| 20260506224602 | 48 | 335 | 2.0 | 3.0 | 0.00 | 0.20 | 0.00 | 96 | 1010.4 |
| 20260506223032 | 49 | 320 | 2.0 | 3.0 | 0.00 | 0.20 | 0.00 | 96 | 1010.3 |
| 20260506221604 | 49 | 357 | 2.0 | 4.0 | 0.00 | 0.20 | 0.00 | 96 | 1010.3 |
| 20260506220036 | 49 | 311 | 2.0 | 4.0 | 0.00 | 0.20 | 0.00 | 96 | 1010.3 |
| 20260506214654 | 49 | 340 | 3.0 | 6.0 | 0.00 | 0.20 | 0.20 | 97 | 1010.2 |
| 20260506213139 | 49 | 31 | 1.0 | 3.0 | 0.00 | 0.20 | 0.20 | 97 | 1010.1 |
| 20260506211609 | 49 | 0.0 | 0.0 | 0.00 | 0.20 | 0.20 | 96 | 1009.9 | |
| 20260506210111 | 49 | 0.0 | 0.0 | 0.00 | 0.20 | 0.20 | 96 | 1009.9 | |
| 20260506204613 | 49 | 0.0 | 0.0 | 0.00 | 0.20 | 0.20 | 96 | 1009.9 | |
| 20260506203040 | 49 | 0.0 | 0.0 | 0.00 | 0.20 | 0.20 | 96 | 1009.8 | |
| 20260506201619 | 49 | 0.0 | 0.0 | 0.00 | 0.20 | 0.20 | 95 | 1009.9 | |
| 20260506200148 | 49 | 0.0 | 0.0 | 0.00 | 0.20 | 0.20 | 95 | 1009.8 | |
| 20260506194618 | 49 | 0.0 | 0.0 | 0.00 | 0.20 | 0.20 | 94 | 1009.8 | |
| 20260506193116 | 49 | 58 | 0.0 | 1.0 | 0.00 | 0.20 | 0.20 | 94 | 1009.6 |
| 20260506191546 | 49 | 0.0 | 0.0 | 0.00 | 0.20 | 0.20 | 93 | 1009.4 | |
| 20260506190118 | 49 | 0.0 | 0.0 | 0.00 | 0.20 | 0.20 | 93 | 1009.2 | |
| 20260506184547 | 49 | 0.0 | 0.0 | 0.00 | 0.20 | 0.20 | 92 | 1009.1 | |
| 20260506183017 | 49 | 9 | 0.0 | 1.0 | 0.00 | 0.20 | 0.20 | 92 | 1009.1 |
| 20260506181549 | 49 | 21 | 1.0 | 1.0 | 0.00 | 0.20 | 0.20 | 92 | 1009.0 |
| 20260506180019 | 49 | 13 | 0.0 | 1.0 | 0.01 | 0.20 | 0.20 | 92 | 1008.9 |
| 20260506174551 | 49 | 6 | 1.0 | 3.0 | 0.01 | 0.20 | 0.20 | 92 | 1008.9 |
| 20260506173021 | 48 | 15 | 2.0 | 4.0 | 0.01 | 0.20 | 0.20 | 92 | 1008.8 |
| 20260506171553 | 48 | 358 | 3.0 | 6.0 | 0.01 | 0.20 | 0.20 | 92 | 1008.7 |
| 20260506170023 | 48 | 101 | 3.0 | 4.0 | 0.01 | 0.19 | 0.19 | 91 | 1008.6 |
| 20260506164556 | 49 | 69 | 1.0 | 1.0 | 0.01 | 0.19 | 0.19 | 91 | 1008.5 |
| 20260506163026 | 49 | 61 | 1.0 | 1.0 | 0.02 | 0.19 | 0.19 | 91 | 1008.6 |
| 20260506161557 | 49 | 50 | 1.0 | 1.0 | 0.03 | 0.19 | 0.19 | 92 | 1008.6 |
| 20260506160027 | 49 | 31 | 0.0 | 1.0 | 0.03 | 0.18 | 0.18 | 92 | 1008.7 |
| 20260506154559 | 49 | 18 | 0.0 | 1.0 | 0.04 | 0.18 | 0.18 | 91 | 1008.7 |
| 20260506153029 | 49 | 33 | 1.0 | 3.0 | 0.04 | 0.17 | 0.17 | 91 | 1008.8 |
| 20260506151601 | 49 | 22 | 2.0 | 4.0 | 0.04 | 0.16 | 0.16 | 90 | 1008.8 |
| 20260506150031 | 49 | 40 | 1.0 | 3.0 | 0.04 | 0.15 | 0.15 | 90 | 1008.8 |
| 20260506144603 | 49 | 36 | 2.0 | 4.0 | 0.05 | 0.14 | 0.14 | 90 | 1008.6 |
| 20260506143033 | 49 | 30 | 1.0 | 4.0 | 0.05 | 0.13 | 0.13 | 89 | 1008.6 |
| 20260506141606 | 48 | 46 | 1.0 | 3.0 | 0.05 | 0.12 | 0.12 | 89 | 1008.6 |
| 20260506140036 | 48 | 31 | 1.0 | 3.0 | 0.05 | 0.11 | 0.11 | 88 | 1008.6 |
| 20260506134607 | 48 | 23 | 1.0 | 3.0 | 0.03 | 0.09 | 0.09 | 87 | 1008.6 |
| 20260506133037 | 48 | 9 | 2.0 | 6.0 | 0.03 | 0.08 | 0.08 | 86 | 1008.7 |
| 20260506131609 | 48 | 6 | 3.0 | 7.0 | 0.03 | 0.07 | 0.07 | 85 | 1008.5 |
| 20260506130039 | 48 | 352 | 2.0 | 6.0 | 0.03 | 0.06 | 0.06 | 85 | 1008.5 |
| 20260506124611 | 49 | 26 | 2.0 | 7.0 | 0.03 | 0.06 | 0.06 | 85 | 1008.4 |
| 20260506123112 | 49 | 25 | 1.0 | 3.0 | 0.03 | 0.05 | 0.05 | 85 | 1008.3 |
| 20260506121542 | 49 | 33 | 2.0 | 4.0 | 0.03 | 0.04 | 0.04 | 86 | 1008.3 |
| 20260506120114 | 49 | 54 | 1.0 | 7.0 | 0.02 | 0.03 | 0.03 | 84 | 1008.2 |
| 20260506114544 | 49 | 53 | 1.0 | 3.0 | 0.02 | 0.03 | 0.03 | 84 | 1008.1 |
| 20260506113116 | 49 | 359 | 2.0 | 6.0 | 0.02 | 0.02 | 0.02 | 81 | 1008.1 |
| 20260506111546 | 49 | 81 | 3.0 | 7.0 | 0.01 | 0.01 | 0.01 | 79 | 1008.2 |
| 20260506110016 | 49 | 50 | 2.0 | 4.0 | 0.01 | 0.01 | 0.01 | 80 | 1008.0 |
| 20260506104548 | 49 | 30 | 2.0 | 6.0 | 0.01 | 0.01 | 0.01 | 78 | 1008.0 |
| 20260506103018 | 50 | 50 | 1.0 | 4.0 | 0.00 | 0.00 | 0.00 | 79 | 1008.0 |
| 20260506101550 | 50 | 54 | 2.0 | 4.0 | 0.00 | 0.00 | 0.00 | 78 | 1008.0 |
| 20260506100020 | 50 | 69 | 1.0 | 4.0 | 0.00 | 0.00 | 0.00 | 75 | 1008.0 |
| 20260506094552 | 51 | 79 | 2.0 | 4.0 | 0.00 | 0.00 | 0.00 | 73 | 1007.8 |
| 20260506093022 | 51 | 33 | 3.0 | 7.0 | 0.00 | 0.00 | 0.00 | 72 | 1007.9 |